Find Starlink 30885

NORAD ID: 58361 Int'l Des: 2023-177 Owner: SPXS Country: US Constellation: starlink operational
LEOCIRCULAR

Current View

Loading 3D Globe...

About Starlink 30885

Starlink 30885 (NORAD 58361) is a starlink constellation satellite (v2 mini) launched Nov 18, 2023 by SPXS of US. It operates in LEO, CIRCULAR orbit with a mass of 730.00 kg.

Upcoming Passes

Passes for default location (London). Set your location on the main map for personalized predictions.

Altitude History

Loading altitude history...

Two-Line Element Set

1 58361U 23177L 26265.20851337 .00003360 00000-0 13167-3 0 9996
2 58361 43.0038 320.6693 0001273 263.0813 96.9894 15.27555433158298
Epoch: Sep 22, 2026 • Age: 24 hours

Current Status

Altitude 486.0 km
Apogee / Perigee N/A
Velocity 7.63 km/s
Sub-Earth Point 38.25°N, 62.18°W
Launch Date Nov 18, 2023
Age 2.8 years
Type internet

Technical Details

Classification Payload
Mass 730.00 kg
Dry Mass 700.00 kg
Length 0.30 m
Span 29.00 m
Shape ? Box + pan
Manufacturer SPXS
Bus Type Starlink V2M
Phase Status In Orbit
Owner/State SPXS/US

Most Searched